[[{"header":{"parameterUnit":"m.s-1","parameterCategory":1,"la1":30.2991,"la2":30.254,"lo1":-89.0895,"lo2":-89.0444,"dy":0.0017,"dx":0.0017,"nx":28,"ny":28,"refTime":"2024-06-06T21:00:00:Z","depth":0,"parameterNumber":2,"parameterNumberName":"U-component_of_WINDS"},"data":[0,0,0,0,0,0,0,0,0,0,0,0,0,0,0,0,0,0,0,0,0,0,0,0,0,0,0,0,0,0,0,0,0,0,0,0,0,0,0,0,0,0,0,0,0,0,0,0,0,0,0,0,0,0,0,0,0,0,-2.6826,-2.6826,0,-2.6834,-2.6835,-2.6835,-2.6796,-2.6795,-2.6794,-2.6793,-2.6801,-2.6802,-2.6803,0,0,0,0,0,0,0,0,0,0,0,0,0,-2.6777,-2.6779,-2.6826,-2.6826,-2.6826,-2.6834,-2.6835,-2.6835,-2.6797,-2.6795,-2.6794,-2.6793,-2.68,-2.6802,-2.6803,0,0,0,0,0,0,0,0,0,0,0,0,0,-2.6793,-2.6779,-2.6826,-2.6808,-2.6807,-2.6834,-2.6835,-2.6835,-2.6797,-2.6795,-2.6793,-2.6792,-2.68,-2.6802,-2.6803,-2.6848,0,0,-2.6809,-2.681,0,0,0,0,0,0,0,0,-2.6793,-2.6795,-2.6811,-2.681,-2.6808,-2.6813,-2.682,-2.6839,-2.6797,-2.6801,-2.6793,-2.6791,-2.6806,-2.6807,-2.6812,-2.6849,-2.6849,-2.6809,-2.681,-2.6811,-2.6812,0,0,0,0,0,0,0,-2.6792,-2.6795,-2.6829,-2.6811,-2.6809,-2.68,-2.68,-2.6824,-2.6813,-2.68,-2.6797,-2.6799,-2.6805,-2.6811,-2.6812,-2.6849,-2.6809,-2.6811,-2.6812,-2.6813,-2.6923,-2.6925,0,0,0,0,0,0,-2.6793,-2.6794,-2.6829,-2.683,-2.6796,-2.6802,-2.6803,-2.6813,-2.6812,-2.681,-2.68,-2.6797,-2.6808,-2.681,-2.6812,-2.6865,-2.6811,-2.6813,-2.6814,-2.6921,-2.6923,-2.6925,0,0,0,0,0,0,-2.6792,-2.6796,-2.6829,-2.6811,-2.6815,-2.6805,-2.6817,-2.6814,-2.682,-2.6812,-2.681,-2.6808,-2.6807,-2.681,-2.684,-2.6864,-2.6814,-2.6815,-2.6919,-2.6922,-2.6924,-2.697,0,0,0,0,0,0,-2.6791,-2.6796,-2.6813,-2.6812,-2.6816,-2.6856,-2.6818,-2.6815,-2.6823,-2.6819,-2.6819,-2.6818,-2.6806,-2.6837,-2.6842,-2.6866,-2.6817,-2.6917,-2.692,-2.6923,-2.6966,-2.6974,-2.698,0,0,0,0,0,-2.6789,-2.6825,-2.6814,-2.6819,-2.6836,-2.6858,-2.686,-2.6846,-2.6825,-2.6842,-2.6837,-2.6818,-2.6861,-2.6841,-2.6845,-2.6871,-2.6915,-2.6919,-2.6923,-2.6963,-2.6972,-2.698,0,0,0,0,0,0,-2.6829,-2.6825,-2.6812,-2.6849,-2.6854,-2.6851,-2.6872,-2.6856,-2.6867,-2.6862,-2.6845,-2.6845,-2.6878,-2.6877,-2.6854,-2.6914,-2.6885,-2.689,-2.6913,-2.6922,-2.6929,-2.6928,-2.6818,0,0,0,0,0,-2.6842,-2.686,-2.6855,-2.6888,-2.6891,-2.6881,-2.689,-2.6879,-2.6883,-2.6885,-2.6883,-2.6887,-2.6902,-2.6912,-2.6925,-2.6966,-2.6966,-2.6986,-2.6993,-2.6999,-2.7003,-2.7025,-2.7034,-2.6939,-2.6939,-2.6938,0,0,-2.6869,-2.6869,-2.6881,-2.6896,-2.6899,-2.6917,-2.6883,-2.6904,-2.6918,-2.6888,-2.6916,-2.6915,-2.6919,-2.6955,-2.697,-2.6955,-2.703,-2.7004,-2.7009,-2.701,-2.703,-2.7039,-2.7047,-2.6941,-2.6941,-2.694,0,0,-2.6928,-2.693,-2.6957,-2.6961,-2.6966,-2.6959,-2.6966,-2.6966,-2.6964,-2.6992,-2.697,-2.6986,-2.7012,-2.7016,-2.7022,-2.7084,-2.7066,-2.7089,-2.7125,-2.7147,-2.7154,-2.7161,-2.7182,-2.719,-2.7093,-2.7093,-2.7093,0,-2.696,-2.6988,-2.6973,-2.6996,-2.7003,-2.6979,-2.7006,-2.7011,-2.7019,-2.7025,-2.7008,-2.7041,-2.7042,-2.7078,-2.7093,-2.7099,-2.7106,-2.7088,-2.7154,-2.7161,-2.7166,-2.7187,-2.7195,-2.7096,-2.7096,-2.7095,-2.7095,0,-2.7028,-2.7047,-2.7069,-2.7078,-2.7088,-2.7114,-2.7103,-2.7115,-2.7104,-2.7099,-2.7128,-2.7129,-2.7142,-2.715,-2.7139,-2.7185,-2.7176,-2.7157,-2.7127,-2.7178,-2.7197,-2.7205,-2.71,-2.7099,-2.7098,-2.7097,0,0,-2.7109,-2.7112,-2.712,-2.7124,-2.7129,-2.7143,-2.7168,-2.7181,-2.7191,-2.7199,-2.7219,-2.7242,-2.7225,-2.7231,-2.7221,-2.724,-2.7288,-2.7218,-2.7218,-2.7231,-2.7339,-2.7352,-2.7361,-2.7277,-2.7279,-2.728,-2.7338,0,-2.7166,-2.7208,-2.7197,-2.7238,-2.7256,-2.7234,-2.7255,-2.726,-2.7257,-2.7271,-2.7268,-2.7284,-2.7261,-2.7264,-2.7282,-2.7279,-2.731,-2.7275,-2.7295,-2.7296,-2.7293,-2.7371,-2.7385,-2.7439,-2.7345,-2.7347,-2.7348,0,-2.7237,-2.7248,-2.7292,-2.7294,-2.7301,-2.732,-2.7332,-2.7346,-2.7352,-2.7348,-2.7356,-2.7342,-2.7366,-2.7337,-2.737,-2.7347,-2.7355,-2.7355,-2.7356,-2.7356,-2.7324,-2.7372,-2.7457,-2.7464,-2.7359,-2.7358,-2.7357,0,-2.7292,-2.7317,-2.7347,-2.7351,-2.7354,-2.7369,-2.7371,-2.7374,-2.7383,-2.7394,-2.74,-2.7413,-2.742,-2.743,-2.742,-2.74,-2.7455,-2.7425,-2.7452,-2.7453,-2.7463,-2.7462,-2.7549,-2.7471,-2.7471,-2.7471,-2.747,0,-2.7355,-2.7383,-2.7371,-2.7389,-2.7419,-2.7407,-2.7437,-2.7436,-2.744,-2.7458,-2.744,-2.7456,-2.7443,-2.7459,-2.7452,-2.748,-2.7483,-2.7481,-2.7478,-2.7482,-2.7482,-2.7485,-2.7481,-2.7473,-2.7472,-2.7472,-2.7472,0,-2.742,-2.7414,-2.7444,-2.7445,-2.7446,-2.7469,-2.7469,-2.7486,-2.7482,-2.7505,-2.7509,-2.7503,-2.7521,-2.7513,-2.7531,-2.7526,-2.7562,-2.7556,-2.7561,-2.7558,-2.7585,-2.7582,-2.7676,-2.7687,-2.7603,-2.7604,-2.7605,0,-2.746,-2.7481,-2.7485,-2.7496,-2.7499,-2.7516,-2.7526,-2.7515,-2.7525,-2.7534,-2.755,-2.7566,-2.7578,-2.7607,-2.7605,-2.7619,-2.7611,-2.7643,-2.7613,-2.7616,-2.761,-2.7609,-2.761,-2.7649,-2.765,-2.765,-2.7651,0,-2.7532,-2.7529,-2.7543,-2.7557,-2.7569,-2.7579,-2.7587,-2.7597,-2.7586,-2.7599,-2.7617,-2.7627,-2.7647,-2.7663,-2.7676,-2.7677,-2.7662,-2.7661,-2.7668,-2.767,-2.7672,-2.7671,-2.7576,-2.7658,-2.7657,-2.7657,-2.7657,-2.7656,-2.7585,-2.7603,-2.7608,-2.7625,-2.7631,-2.764,-2.7655,-2.7654,-2.7669,-2.7684,-2.7677,-2.7698,-2.7704,-2.772,-2.7724,-2.774,-2.7728,-2.7738,-2.774,-2.7742,-2.7745,-2.7671,-2.7743,-2.7743,-2.7742,-2.7742,-2.7742,0,-2.7655,-2.7658,-2.7674,-2.7687,-2.77,-2.7687,-2.7696,-2.7708,-2.7727,-2.7734,-2.7747,-2.7768,-2.7784,-2.7783,-2.7798,-2.7811,-2.7805,-2.7815,-2.7813,-2.7814,-2.7756,-2.7748,-2.782,-2.782,-2.782,-2.782,-2.782,-2.782,-2.7693,-2.7722,-2.7719,-2.775,-2.7753,-2.7774,-2.778,-2.7788,-2.7794,-2.7819,-2.7832,-2.7832,-2.7836,-2.7851,-2.7865,-2.7865,-2.7871,-2.7884,-2.788,-2.7826,-2.7818,-2.7811,-2.7803,-2.7885,-2.7885,-2.7937,-2.7937,-2.7937]},{"header":{"parameterUnit":"m.s-1","parameterCategory":1,"la1":30.2991,"la2":30.254,"lo1":-89.0895,"lo2":-89.0444,"dy":0.0017,"dx":0.0017,"nx":28,"ny":28,"refTime":"2024-06-06T21:00:00:Z","depth":0,"parameterNumber":3,"parameterNumberName":"V-component_of_WINDS"},"data":[0,0,0,0,0,0,0,0,0,0,0,0,0,0,0,0,0,0,0,0,0,0,0,0,0,0,0,0,0,0,0,0,0,0,0,0,0,0,0,0,0,0,0,0,0,0,0,0,0,0,0,0,0,0,0,0,0,0,1.1311,1.1312,0,1.1365,1.1366,1.1367,1.1417,1.1417,1.1418,1.1419,1.1473,1.1474,1.1475,0,0,0,0,0,0,0,0,0,0,0,0,0,1.1252,1.1252,1.1311,1.1312,1.1313,1.1365,1.1366,1.1367,1.1417,1.1417,1.1418,1.1419,1.1473,1.1474,1.1475,0,0,0,0,0,0,0,0,0,0,0,0,0,1.1289,1.1253,1.1311,1.1344,1.1347,1.1365,1.1366,1.1367,1.1417,1.1417,1.1418,1.1419,1.1472,1.1474,1.1475,1.1465,0,0,1.1479,1.148,0,0,0,0,0,0,0,0,1.1287,1.1291,1.1338,1.1342,1.1346,1.1385,1.1365,1.14,1.1416,1.139,1.1419,1.142,1.1443,1.1447,1.1455,1.1467,1.1469,1.1479,1.148,1.1481,1.1481,0,0,0,0,0,0,0,1.1284,1.1289,1.1333,1.1339,1.1343,1.1356,1.1362,1.1372,1.1411,1.1393,1.1396,1.1402,1.1445,1.1454,1.1457,1.147,1.1479,1.148,1.1481,1.1482,1.1479,1.1478,0,0,0,0,0,0,1.1276,1.1286,1.1331,1.1334,1.1318,1.1356,1.1363,1.1372,1.1411,1.1418,1.1401,1.1404,1.1451,1.1455,1.1459,1.1451,1.1481,1.1482,1.1482,1.148,1.1479,1.1478,0,0,0,0,0,0,1.1275,1.128,1.1329,1.1311,1.1319,1.1356,1.1365,1.1372,1.1381,1.1417,1.1425,1.1403,1.1452,1.1457,1.1463,1.1453,1.1482,1.1484,1.1481,1.1479,1.1478,1.1433,0,0,0,0,0,0,1.1273,1.1279,1.1275,1.1311,1.1319,1.1332,1.1365,1.1373,1.1383,1.1387,1.1421,1.1427,1.1453,1.1461,1.1465,1.1455,1.1485,1.1482,1.148,1.1479,1.1435,1.143,1.1426,0,0,0,0,0,1.1271,1.126,1.1275,1.128,1.1315,1.1331,1.1336,1.1367,1.1382,1.1379,1.1403,1.1426,1.1454,1.1461,1.1466,1.1457,1.1483,1.1481,1.1479,1.1438,1.1431,1.1426,0,0,0,0,0,0,1.1221,1.1265,1.1282,1.1282,1.1303,1.134,1.1336,1.1358,1.1375,1.1378,1.1415,1.1422,1.1425,1.1441,1.1449,1.145,1.1471,1.147,1.1439,1.1433,1.1428,1.1424,1.1486,0,0,0,0,0,1.121,1.1219,1.1257,1.1254,1.1263,1.1298,1.1306,1.1328,1.1351,1.1359,1.1384,1.1405,1.1419,1.1427,1.1441,1.1438,1.1447,1.1434,1.1429,1.1425,1.1424,1.1425,1.1421,1.1471,1.1471,1.1471,0,0,1.1187,1.1213,1.1216,1.1245,1.1263,1.1272,1.1305,1.1313,1.1321,1.1361,1.1369,1.1387,1.1413,1.1415,1.1418,1.1429,1.1412,1.1423,1.1419,1.142,1.1423,1.1418,1.1414,1.147,1.147,1.147,0,0,1.1151,1.1171,1.1171,1.1189,1.1217,1.1241,1.1241,1.1275,1.1289,1.1298,1.1329,1.1338,1.136,1.1378,1.139,1.1363,1.1385,1.1366,1.1341,1.1342,1.1338,1.1335,1.1326,1.1322,1.1365,1.1365,1.1365,0,1.112,1.1135,1.1168,1.1175,1.1187,1.1225,1.1226,1.1242,1.1272,1.128,1.1293,1.1323,1.1343,1.1351,1.1345,1.1353,1.1354,1.1363,1.1336,1.1333,1.133,1.1322,1.1319,1.1362,1.1363,1.1363,1.1363,0,1.1095,1.1105,1.1102,1.1132,1.1144,1.1148,1.1182,1.119,1.1211,1.1233,1.1243,1.1268,1.1289,1.1293,1.1313,1.1304,1.1311,1.1329,1.1352,1.1322,1.1316,1.1313,1.1359,1.136,1.1361,1.1361,0,0,1.1028,1.1078,1.1076,1.1091,1.1126,1.1134,1.114,1.1162,1.1168,1.1189,1.1195,1.1214,1.1232,1.1246,1.1269,1.1269,1.1248,1.1288,1.1289,1.1281,1.1241,1.1227,1.1223,1.1263,1.1262,1.1262,1.1239,0,1.0999,1.1012,1.1043,1.1046,1.1057,1.1094,1.1099,1.1121,1.1142,1.1155,1.1178,1.1192,1.1214,1.1222,1.1225,1.125,1.124,1.1252,1.127,1.127,1.1263,1.1219,1.1205,1.1181,1.1236,1.1236,1.1236,0,1.0965,1.0985,1.0989,1.1025,1.1031,1.1035,1.1058,1.1069,1.1095,1.1111,1.1127,1.1152,1.1162,1.1182,1.1196,1.1203,1.1212,1.1226,1.1226,1.1229,1.1251,1.1222,1.1175,1.1171,1.1232,1.1232,1.1232,0,1.0917,1.0944,1.0952,1.0963,1.1004,1.1007,1.1024,1.1051,1.1063,1.1083,1.1091,1.1111,1.1122,1.1138,1.1169,1.1181,1.118,1.1202,1.1193,1.1193,1.1191,1.1191,1.1146,1.1196,1.1196,1.1196,1.1196,0,1.0881,1.0883,1.0931,1.0935,1.0939,1.0974,1.0977,1.0998,1.1022,1.1031,1.1064,1.1072,1.1112,1.1125,1.1149,1.1158,1.1162,1.1176,1.1182,1.1173,1.1172,1.118,1.1183,1.1195,1.1196,1.1196,1.1196,0,1.0828,1.086,1.087,1.0909,1.0919,1.092,1.0954,1.096,1.0983,1.0995,1.1,1.1037,1.1054,1.1087,1.1113,1.1129,1.1132,1.1143,1.1124,1.1128,1.1117,1.1118,1.1076,1.1073,1.1124,1.1124,1.1123,0,1.0803,1.0806,1.0845,1.0854,1.0871,1.0884,1.0897,1.0932,1.0944,1.0975,1.0977,1.0997,1.1015,1.1041,1.1071,1.1091,1.1103,1.1087,1.1107,1.1098,1.1104,1.1104,1.1105,1.1083,1.1082,1.1081,1.1081,0,1.0756,1.0772,1.0789,1.0811,1.0825,1.0845,1.0866,1.0871,1.0912,1.0923,1.0942,1.0955,1.0983,1.1003,1.1028,1.1046,1.1071,1.1075,1.1074,1.1065,1.1054,1.1061,1.1113,1.1075,1.1076,1.1076,1.1077,1.1077,1.0717,1.0722,1.0751,1.0769,1.0789,1.0808,1.0816,1.0841,1.0857,1.0883,1.0903,1.092,1.0948,1.0984,1.1001,1.1016,1.1027,1.1025,1.1025,1.1025,1.1022,1.1051,1.102,1.102,1.1021,1.1021,1.1021,0,1.0673,1.0694,1.071,1.0739,1.0753,1.0776,1.08,1.0811,1.0826,1.085,1.0867,1.0889,1.0909,1.094,1.0963,1.0968,1.098,1.0973,1.0973,1.0978,1.1009,1.1008,1.0963,1.0963,1.0963,1.0963,1.0963,1.0963,1.0652,1.0661,1.0681,1.0701,1.0722,1.0739,1.0752,1.077,1.079,1.0813,1.083,1.0851,1.0878,1.0903,1.0923,1.0932,1.0939,1.0928,1.0941,1.097,1.0975,1.098,1.098,1.0929,1.0929,1.0908,1.0908,1.0908]}]]